星链-4253 (STARLINK-4253 )

导读 | 豆包AI

STARLINK-4253是美国SpaceX星链低轨互联网星座中的一颗卫星,于2022年7月7日发射入轨。星链系统旨在为全球提供高速互联网接入服务,该卫星承担着星座组网与通信服务任务,属于OneBatch批次卫星,运行在近地轨道,依托大规模星座组网,为用户提供覆盖全球的宽带通信服务,助力SpaceX实现全球卫星互联网的部署目标。

Basic Information
目录编号:
53004
目录名称:
STARLINK-4253
国际标识:
2022-076U
轨道中心:
EARTH
卫星名称:
星链-4253
卫星全名:
星链-4253 (STARLINK-4253 )
卫星状态:
在轨 (已飞行1393 天)
发射日期:
2022-07-07 UTC
国别 :
美国 (US)
星等 :
--
Orbit Information
数据来源 国际轨道数据 AOE轨道数据
星历时间 2026-04-30T19:28:26+0800
9小时前
查看轨道信息
2026-04-26T07:00:00+0800
4天前
查看轨道信息
半长轴 6917.878km 6917.881km
偏心率 0.0001175 0.0001535
轨道倾角 53.218° 53.216°
近地点辐角 100.386° 28.305°
升交点赤经 221.632° 241.925°
平近点角 259.726° 248.022°
近地点 538.928km 538.682km
远地点 540.554km 540.806km
周期 95.438分钟 95.438分钟
每日圈数 15.088408 15.088401
Detailed Information
固有亮度:
5
最大亮度:
2.5
卫星平台:
Starlink v1.5
覆盖范围:
全球
运营商:
太空探索技术公司
运营商所在国:
美国
制造商(研发单位):
太空探索技术公司
制造商所在国:
美国
使用方式:
暂无
Satellite Introduction
星链(Starlink)计划是由太空探索技术公司(SpaceX)提出的一个巨型低轨卫星互联网星座项目,计划在2019年至2024年间在太空搭建由约1.2万颗卫星组成的“星链”网络,其中1584颗将部署在地球上空550千米处的近地轨道,并从2020年开始工作。该卫星仍在工作。
2D Orbit Map
3D Orbit Map
Orbit Altitude Analysis Chart
Orbit Inclination Analysis Chart
Orbit Comprehensive Analysis Chart
View Comprehensive Chart